Regional Weather Roundup
Issued by NWS

Home | Current Version | Previous Version | Text Only | Print | Product List | Glossary Off
Versions: 1 2 3 4 5 6 7 8 9 10 11 12 13 14 15 16 17 18 19 20 21 22 23 24 25 26 27 28 29 30 31 32 33 34 35 36 37 38 39 40 41 42 43 44 45 46 47 48 49 50

000
ASUS43 KFSD 161110
RWRSD

WEATHER ROUNDUP FOR SOUTH DAKOTA
NATIONAL WEATHER SERVICE SIOUX FALLS SD
600 AM CDT MON OCT 16 2017

NOTE: "FAIR" INDICATES FEW OR NO CLOUDS BELOW 12,000 FEET WITH NO
SIGNIFICANT WEATHER AND/OR OBSTRUCTIONS TO VISIBILITY.


SDZ001>005-009-010-012>017-161200-
NORTHWEST AND NORTH CENTRAL SOUTH DAKOTA

CITY           SKY/WX    TMP DP  RH WIND       PRES   REMARKS
BUFFALO          N/A     41  27  57 W9        30.03F
FAITH            N/A     37  29  72 S16       30.11F
MOBRIDGE       CLEAR     37  32  82 S8        30.10F
$$

SDZ012>016-024>037-041>051-057-063-072>074-161200-
SOUTHWEST AND SOUTH CENTRAL SOUTH DAKOTA

CITY           SKY/WX    TMP DP  RH WIND       PRES   REMARKS
RAPID CTY ARPT CLEAR     30  25  81 NW6       30.14F WCI  24
PIERRE         CLEAR     32  29  88 E5        30.15F WCI  27
CUSTER         CLOUDY    39  23  52 W7        30.21F
ELLSWORTH AFB  CLOUDY    38  27  64 W8        30.13F
PHILIP         CLOUDY    31  28  89 CALM      30.15F
PINE RIDGE     CLEAR     42  27  55 W6        30.20R
SPEARFISH      FAIR      45  25  45 CALM      30.16S
WINNER         FAIR      44  31  60 SW7       30.20F
$$

SDZ004>011-016>023-039-040-161200-
NORTHEAST SOUTH DAKOTA

CITY           SKY/WX    TMP DP  RH WIND       PRES   REMARKS
ABERDEEN       CLEAR     28  27  96 S8        30.18F WCI  20
WATERTOWN      CLEAR     32  30  92 SE5       30.20F WCI  27
BROOKINGS      CLEAR     32  30  92 SE5       30.24F WCI  27
SISSETON         N/A     44  33  65 SW13      30.16F
$$

SDZ017-020-022-023-036>040-048>070-161200-
SOUTHEAST SOUTH DAKOTA

CITY           SKY/WX    TMP DP  RH WIND       PRES   REMARKS
SIOUX FALLS    CLEAR     33  32  96 CALM      30.26F
HURON          CLEAR     32  30  92 S6        30.20F WCI  26
CHAMBERLAIN    CLEAR     36  35  96 CALM      30.21F
MITCHELL       CLEAR     33  31  92 S7        30.24F WCI  27
YANKTON        CLEAR     36  35  96 CALM      30.28S
$$

ABBREVIATIONS USED IN REMARKS
   TC - TEMPERATURE IN CELSIUS
  WCI - WIND CHILL INDEX
   HX - HEAT INDEX
  VSB - VISIBILITY





USA.gov is the U.S. government's official web portal to all federal, state and local government web resources and services.